This is the latest recevied weather packets stored in our database for station/object OH2HCY. If no packets are shown the sender has not sent any weather packets the latest 10 day(s).
| Time | Temp. | Humidity | Pressure | Rain* | Wind** | Luminosity | Snow |
|---|---|---|---|---|---|---|---|
| 1777633270 | 18.89° C | 33% | 1011.7 hPa | - | - | - | - |
| 1777632710 | 18.89° C | 34% | 1012 hPa | - | - | - | - |
| 1777632182 | 17.78° C | 36% | 1012.4 hPa | - | - | - | - |
| 1777631620 | 17.78° C | 36% | 1012.4 hPa | - | - | - | - |
| 1777631070 | 18.33° C | 35% | 1012.5 hPa | - | - | - | - |
| 1777630530 | 17.78° C | 36% | 1012.9 hPa | - | - | - | - |
| 1777630025 | 17.22° C | 39% | 1013.1 hPa | - | - | - | - |
| 1777629460 | 17.22° C | 40% | 1013.3 hPa | - | - | - | - |
| 1777628909 | 16.67° C | 40% | 1013.5 hPa | - | - | - | - |
| 1777628345 | 16.67° C | 41% | 1013.5 hPa | - | - | - | - |
| 1777627809 | 16.67° C | 41% | 1013.5 hPa | - | - | - | - |
| 1777627310 | 16.67° C | 43% | 1013.8 hPa | - | - | - | - |
| 1777626800 | 16.67° C | 43% | 1013.9 hPa | - | - | - | - |
| 1777626275 | 16.67° C | 43% | 1014.3 hPa | - | - | - | - |
| 1777625725 | 16.11° C | 44% | 1014.3 hPa | - | - | - | - |
| 1777625200 | 16.67° C | 44% | 1014.3 hPa | - | - | - | - |
| 1777624660 | 16.11° C | 45% | 1014.3 hPa | - | - | - | - |
| 1777624065 | 16.11° C | 45% | 1014.5 hPa | - | - | - | - |
| 1777623482 | 15.56° C | 46% | 1014.7 hPa | - | - | - | - |
| 1777622935 | 15.56° C | 46% | 1014.7 hPa | - | - | - | - |
| 1777622445 | 15.56° C | 46% | 1014.8 hPa | - | - | - | - |
| 1777621925 | 15.56° C | 47% | 1015 hPa | - | - | - | - |
| 1777621395 | 15° C | 47% | 1015.1 hPa | - | - | - | - |
| 1777620889 | 15.56° C | 48% | 1015.1 hPa | - | - | - | - |
| 1777620355 | 14.44° C | 50% | 1015.4 hPa | - | - | - | - |
* Rain since midnight (hover to see other rain measurements)
** Current wind speed in m/s (hover to see current wind gust speed)